Regional Weather Roundup
Issued by NWS

Home | Current Version | Previous Version | Graphics & Text | Print | Product List | Glossary On
Versions: 1 2 3 4 5 6 7 8 9 10 11 12 13 14 15 16 17 18 19 20 21 22 23 24 25 26 27 28 29 30 31 32 33 34 35 36 37 38 39 40 41 42 43 44 45 46 47 48 49 50
000
ASUS45 KCYS 241110
RWRWY

WYOMING REGIONAL WEATHER ROUNDUP
NATIONAL WEATHER SERVICE CHEYENNE WY
400 AM MST TUE JAN 24 2017

NOTE:  "FAIR" INDICATES FEW OR NO CLOUDS BELOW 12,000 FEET
WITH NO SIGNIFICANT WEATHER AND/OR OBSTRUCTIONS TO VISIBILITY.

WYZ001-241200-
YELLOWSTONE NATIONAL PARK

CITY           SKY/WX    TMP DP  RH WIND       PRES   REMARKS
LK YELLOWSTONE   N/A     15  12  88 CALM      29.54S
W YELLOWSTONE  NOT AVBL

$$
WYZ002>013-054>058-071-098>099-241200-
NORTHERN WYOMING

CITY           SKY/WX    TMP DP  RH WIND       PRES   REMARKS
JACKSON        CLOUDY    21  21 100 CALM      29.54R
CODY           LGT SNOW  19  15  84 NW14      29.68S FOG     WCI   6
GREYBULL       CLOUDY    22  17  81 W6        29.65F WCI  14
WORLAND        LGT SNOW  21  20  96 N7        29.66R VSB 1   WCI  12
SHERIDAN       LGT SNOW  20  17  88 VRB7      29.76R FOG     WCI  11
BUFFALO        LGT SNOW  19  14  81 N26G37    29.64S WCI   1
GILLETTE       LGT SNOW  17  15  92 N13       29.68S VSB 1   WCI   4
HULETT         CLOUDY    16  12  86 MISG      29.72R
NEWCASTLE      LGT SNOW  21  19  93 NW5       29.64S WCI  15

$$
WYZ014>020-022>026-101>103-241200-
CENTRAL WYOMING

CITY           SKY/WX    TMP DP  RH WIND       PRES   REMARKS
BIG PINEY      LGT SNOW  19  16  88 CALM      29.52S VSB 3/4
PINEDALE       LGT SNOW  19  19 100 W9        29.51S WCI   9
DUBOIS         NOT AVBL
LANDER         LGT SNOW  19  17  92 NW5       29.58S FOG     WCI  12
RIVERTON       LGT SNOW  19  17  92 NE13      29.58S FOG     WCI   6
CASPER         LGT SNOW  15  12  88 N15       29.59S FOG     WCI   0
DOUGLAS        LGT SNOW  19  17  92 N9        29.61S FOG     WCI   8

$$
WYZ021-027>030-104>119-241200-
SOUTHERN WYOMING

CITY           SKY/WX    TMP DP  RH WIND       PRES   REMARKS
EVANSTON       CLOUDY    18  13  80 SW18      29.56R HAZE    WCI   2
ROCK SPRINGS   LGT SNOW  20  17  88 W21       29.52S FOG     WCI   4
RAWLINS        FAIR      19  14  81 W13       29.49S WCI   6
LARAMIE        FAIR      11   9  92 S3        29.47F
CHEYENNE       CLOUDY    29  26  89 N5        29.50S WCI  24
TORRINGTON     FLURRIES  23  19  85 N9        29.59R WCI  13

$$



USA.gov is the U.S. government's official web portal to all federal, state and local government web resources and services.